Regional Weather Roundup
Issued by NWS

Home | Current Version | Previous Version | Text Only | Print | Product List | Glossary On
Versions: 1 2 3 4 5 6 7 8 9 10 11 12 13 14 15 16 17 18 19 20 21 22 23 24 25 26 27 28 29 30 31 32 33 34 35 36 37 38 39 40 41 42 43 44 45 46 47 48 49 50
000
ASUS44 KJAN 180810
RWRMS

MISSISSIPPI HOURLY WEATHER ROUNDUP
NATIONAL WEATHER SERVICE JACKSON MS
300 AM CDT SAT APR 18 2015

NOTE: "FAIR: INDICATES FEW OR NO CLOUDS BELOW 12,000 FEET WITH NO
SIGNIFICANT WEATHER AND/OR OBSTRUCTIONS TO VISIBILITY.

MSZ001>002-007>008-010>013-018>021-025>028-034>036-180900-
NORTHWEST MISSISSIPPI

CITY           SKY/WX    TMP DP  RH WIND       PRES   REMARKS
CLARKSDALE       N/A     63  63 100 CALM      29.99S
CLEVELAND      FAIR      64  64 100 E5        29.96F
GREENWOOD      CLOUDY    63  60  90 CALM      29.96F
GREENVILLE     CLOUDY    66  63  90 E3        29.95F
OLIVE BRANCH   CLEAR     57 N/A N/A CALM      29.99S
OXFORD         FOG       57  57 100 CALM      30.01S VSB 1
TUNICA         CLOUDY    63  61  94 CALM      29.99F
$$

MSZ003>006-009-014>017-022>024-029>033-037>039-180900-
NORTHEAST MISSISSIPPI

CITY           SKY/WX    TMP DP  RH WIND       PRES   REMARKS
COLUMBUS AFB   CLOUDY    62  62 100 NE3       29.98R
CORINTH        FAIR      59  57  94 CALM      29.98R FOG
GOLDN TRIANGLE MOCLDY    61  59  94 CALM      29.98R
STARKVILLE     FOG       59  59 100 CALM      29.98S VSB 1/2
TUPELO         CLOUDY    61  59  93 E5        29.98S
$$

MSZ040-058-180900-
CENTRAL MISSISSIPPI

CITY           SKY/WX    TMP DP  RH WIND       PRES   REMARKS
JACKSON INTL   CLOUDY    66  62  87 E6        29.95S
JACKSON HAWKNS CLOUDY    66  62  87 E8        29.95S
MERIDIAN KEY   CLOUDY    64  62  93 E5        29.95F
MERIDIAN NAS   CLOUDY    64  62  93 NE3       29.96F
RAYMOND        CLOUDY    68  63  83 E8G14     29.94S
VICKSBURG      CLOUDY    67  65  93 E3        29.94S
$$

MSZ059>079-180900-
SOUTH MISSISSIPPI

CITY           SKY/WX    TMP DP  RH WIND       PRES   REMARKS
BROOKHAVEN     CLOUDY    66  66 100 CALM      29.99R
HATTIESBURG    CLOUDY    66  64  93 NE6       29.95S
MCCOMB         CLOUDY    68  66  93 CALM      29.96R
NATCHEZ        CLOUDY    66  63  88 CALM      29.96R
PINE BELT      CLOUDY    64  61  88 N5        29.96R
$$

MSZ080>082-180900-
COASTAL MISSISSIPPI

CITY           SKY/WX    TMP DP  RH WIND       PRES   REMARKS
BILOXI         CLOUDY    70  70 100 N1        29.91R FOG
PASCAGOULA     CLOUDY    69  68  96 CALM      29.91F
GULFPORT       CLOUDY    69  68  96 CALM      29.91S
$$


USA.gov is the U.S. government's official web portal to all federal, state and local government web resources and services.